Regional Weather Roundup
Issued by NWS Mt. Holly, NJ

Home | Current Version | Previous Version | Text Only | Print | Product List | Glossary On
Versions: 1 2 3 4 5 6 7 8 9 10 11 12 13 14 15 16 17 18 19 20 21 22 23 24 25 26 27 28 29 30 31 32 33 34 35 36 37 38 39 40 41 42 43 44 45 46 47 48 49 50
000
ASUS41 KPHI 220610
RWRPHI

REGIONAL WEATHER ROUNDUP
NATIONAL WEATHER SERVICE MOUNT HOLLY NJ
200 AM EDT MON SEP 22 2014

NOTE:  "FAIR" INDICATES FEW OR NO CLOUDS BELOW 12,000 FEET WITH NO
SIGNIFICANT WEATHER AND/OR OBSTRUCTIONS TO VISIBILITY.

 * = STATION DOES NOT REPORT PRECIPITATION (E.G. RAIN, SNOW, ETC.)
        OR FOG.

NJZ015>026-220700-
SOUTHERN NEW JERSEY

CITY           SKY/WX    TMP DP  RH WIND       PRES   REMARKS
POMONA         PTCLDY    69  64  84 W8        29.69R
6HR MIN TEMP:  68; 6HR MAX TEMP:  70;

RIO GRANDE*    CLEAR     72  63  73 W8        29.73R
MILLVILLE      LGT RAIN  69  62  78 W10       29.72R
WRIGHTSTOWN    CLOUDY    70  62  77 NW14      29.67R
MOUNT HOLLY    MOCLDY    71  60  68 W9        29.70R
TRENTON        PTCLDY    68  60  75 NW9       29.69R
6HR MIN TEMP:  68; 6HR MAX TEMP:  71; 6HR PCP: TRACE;


$$
NJZ001>014-220700-
NORTHERN NEW JERSEY

CITY           SKY/WX    TMP DP  RH WIND       PRES   REMARKS
SUSSEX         FOG       62  59  90 CALM      29.69R VSB 3/4
ANDOVER*         N/A     61  60  97 CALM      29.70R
MORRISTOWN     MOCLDY    66  57  72 CALM      29.68R
NEWARK         CLOUDY    69  62  78 NW9       29.66R
TETERBORO      MOCLDY    67  59  75 NW5       29.65R
CALDWELL       MOCLDY    65  58  78 CALM      29.68R
SOMERVILLE     MOCLDY    67  62  84 NW3       29.67R
ALLAIRE*       CLOUDY    66  61  82 W7        29.67R
TOMS RIVER*    MOCLDY    70  63  78 W8        29.68R

$$
PAZ043-044-047-054-055-060>062-066>071-220700-
EASTERN PENNSYLVANIA

CITY           SKY/WX    TMP DP  RH WIND       PRES   REMARKS
PHILADELPHIA   MOCLDY    71  61  70 W9        29.72R
6HR MIN TEMP:  71; 6HR MAX TEMP:  75; 6HR PCP: TRACE;

NORTH PHILA    PTCLDY    70  58  65 NW13      29.72R
BLUE BELL      CLEAR     66  61  82 CALM      29.71R
DOYLESTOWN     PTCLDY    65  62  90 VRB6      29.70R
QUAKERTOWN*    CLEAR     64  55  72 CALM      29.73R
POTTSTOWN      PTCLDY    64  59  83 VRB3      29.74R
LANCASTER      PTCLDY    62  57  83 W8        29.75R
COATESVILLE    PTCLDY    63  61  94 W7        29.76R
READING        CLEAR     64  56  75 NW6       29.72R
6HR MIN TEMP:  64; 6HR MAX TEMP:  73; 6HR PCP:  0.14;

ALLENTOWN      CLEAR     65  54  67 W6        29.71R
6HR MIN TEMP:  65; 6HR MAX TEMP:  72; 6HR PCP:  0.04;

MOUNT POCONO   PTCLDY    58  50  75 W13G22    29.73R
6HR MIN TEMP:  58; 6HR MAX TEMP:  66; 6HR PCP:  0.21;

HAZLETON       PTCLDY    59  54  82 W3        29.78S
WILKES BARRE   PTCLDY    61  58  90 SW5       29.73R

$$
DEZALL-MDZ008-012-015-019-020-220700-
DELAWARE AND EASTERN MARYLAND

CITY           SKY/WX    TMP DP  RH WIND       PRES   REMARKS
WILMINGTON     PTCLDY    69  60  73 W12       29.74R
6HR MIN TEMP:  68; 6HR MAX TEMP:  74;

DOVER          PTCLDY    69  65  85 W8        29.71R
GEORGETOWN     CLEAR     72  64  76 S6        29.75R
6HR MIN TEMP:  69; 6HR MAX TEMP:  74;

EASTON         PTCLDY    74  56  53 NW13      29.80R
PATUXENT       PTCLDY    73  57  57 W12       29.78R
OCEAN CITY     PTCLDY    73  66  78 W7        29.74R
WALLOPS ISLAND CLEAR     76  68  76 NW9       29.76R
CAMBRIDGE      PTCLDY    77  55  47 NW15G25   29.76R
SALISBURY      CLEAR     76  64  66 W9        29.75R

$$
PAZ001-021-NYZ056-072-MDZ011-DCZ001-220700-
OTHER NEARBY LOCATIONS

CITY           SKY/WX    TMP DP  RH WIND       PRES   REMARKS
HARRISBURG     PTCLDY    66  52  60 NW16G24   29.75R
STATE COLLEGE  CLOUDY    58  49  70 W15       29.81R
WILLIAMSPORT   RAIN      61  54  77 W9        29.74R
BINGHAMTON     CLEAR     55  51  86 W12       29.69F
NEW YORK CITY  MOCLDY    68  60  75 VRB7      29.69R
BALTIMORE      PTCLDY    69  49  48 NW12      29.78R
WASHINGTON DC  PTCLDY    74  46  36 NW18G28   29.80R

$$



USA.gov is the U.S. government's official web portal to all federal, state and local government web resources and services.